| time (UTC) | temp F | wind direction | speed knots | gust knots | rain 1hr in | rain 24hr in | rain mn in | humidity % | barometer mb |
| 20260507014451 | 48 | 340 | 0.0 | 4.3 | 0.00 | 0.02 | 0.02 | 35 | 1016.8 |
| 20260507013453 | 50 | 278 | 0.9 | 4.3 | 0.00 | 0.02 | 0.02 | 32 | 1016.5 |
| 20260507012450 | 51 | 24 | 0.0 | 3.5 | 0.00 | 0.02 | 0.02 | 30 | 1016.4 |
| 20260507011448 | 51 | 325 | 0.9 | 7.0 | 0.00 | 0.02 | 0.02 | 30 | 1016.3 |
| 20260507010431 | 51 | 4 | 1.7 | 7.0 | 0.00 | 0.02 | 0.02 | 30 | 1016.0 |
| 20260507005450 | 52 | 9 | 0.9 | 6.1 | 0.00 | 0.02 | 0.02 | 31 | 1015.8 |
| 20260507004446 | 52 | 25 | 1.7 | 7.8 | 0.00 | 0.02 | 0.02 | 30 | 1015.7 |
| 20260507003429 | 52 | 302 | 1.7 | 7.8 | 0.00 | 0.02 | 0.02 | 30 | 1015.5 |
| 20260507001353 | 52 | 4 | 2.6 | 12.2 | 0.00 | 0.02 | 0.02 | 31 | 1015.2 |
| 20260507000343 | 52 | 16 | 3.5 | 12.2 | 0.00 | 0.02 | 0.02 | 31 | 1015.2 |
| 20260506235311 | 53 | 14 | 1.7 | 9.6 | 0.00 | 0.02 | 0.02 | 32 | 1015.0 |
| 20260506234314 | 53 | 359 | 4.3 | 9.6 | 0.00 | 0.02 | 0.02 | 31 | 1014.9 |
| 20260506233324 | 54 | 25 | 1.7 | 8.7 | 0.00 | 0.02 | 0.02 | 30 | 1014.6 |
| 20260506232337 | 53 | 304 | 2.6 | 8.7 | 0.00 | 0.02 | 0.02 | 31 | 1014.5 |
| 20260506231317 | 53 | 341 | 2.6 | 9.6 | 0.00 | 0.02 | 0.02 | 32 | 1014.3 |
| 20260506230332 | 54 | 274 | 2.6 | 9.6 | 0.00 | 0.02 | 0.02 | 31 | 1014.2 |
| 20260506225305 | 53 | 354 | 2.6 | 7.8 | 0.00 | 0.02 | 0.02 | 31 | 1013.9 |
| 20260506224233 | 54 | 328 | 1.7 | 12.2 | 0.00 | 0.03 | 0.02 | 32 | 1013.9 |
| 20260506223213 | 52 | 21 | 4.3 | 12.2 | 0.00 | 0.03 | 0.02 | 32 | 1013.8 |
| 20260506221119 | 52 | 324 | 0.9 | 5.2 | 0.00 | 0.03 | 0.02 | 32 | 1013.9 |
| 20260506220052 | 52 | 304 | 2.6 | 7.0 | 0.00 | 0.03 | 0.02 | 32 | 1013.7 |
| 20260506215036 | 51 | 353 | 0.0 | 4.3 | 0.00 | 0.03 | 0.02 | 34 | 1013.7 |
| 20260506214045 | 51 | 306 | 0.0 | 2.6 | 0.00 | 0.03 | 0.02 | 39 | 1013.7 |
| 20260506211853 | 51 | 240 | 0.0 | 7.0 | 0.00 | 0.03 | 0.02 | 37 | 1013.8 |
| 20260506210856 | 51 | 266 | 0.9 | 7.0 | 0.00 | 0.03 | 0.02 | 36 | 1013.8 |
| 20260506205848 | 52 | 309 | 0.9 | 3.5 | 0.00 | 0.03 | 0.02 | 39 | 1013.7 |
| 20260506204910 | 52 | 101 | 0.0 | 6.1 | 0.00 | 0.03 | 0.02 | 44 | 1013.6 |
| 20260506203901 | 48 | 169 | 1.7 | 6.1 | 0.00 | 0.03 | 0.02 | 48 | 1013.6 |
| 20260506201739 | 46 | 297 | 0.9 | 3.5 | 0.00 | 0.03 | 0.02 | 54 | 1013.5 |
| 20260506200721 | 46 | 250 | 0.0 | 4.3 | 0.00 | 0.03 | 0.02 | 56 | 1013.5 |
| 20260506195704 | 46 | 100 | 0.0 | 4.3 | 0.00 | 0.03 | 0.02 | 60 | 1013.3 |
| 20260506194637 | 45 | 44 | 1.7 | 6.1 | 0.00 | 0.03 | 0.02 | 62 | 1013.2 |
| 20260506193648 | 44 | 120 | 0.9 | 6.1 | 0.00 | 0.03 | 0.02 | 64 | 1013.3 |
| 20260506192712 | 43 | 50 | 0.9 | 6.1 | 0.00 | 0.03 | 0.02 | 65 | 1013.3 |
| 20260506191734 | 44 | 190 | 1.7 | 6.1 | 0.00 | 0.03 | 0.02 | 63 | 1013.2 |
| 20260506190722 | 46 | 315 | 1.7 | 7.8 | 0.00 | 0.03 | 0.02 | 62 | 1012.8 |
| 20260506184628 | 49 | 351 | 2.6 | 7.0 | 0.00 | 0.03 | 0.02 | 47 | 1012.6 |
| 20260506183602 | 50 | 16 | 1.7 | 6.1 | 0.00 | 0.03 | 0.02 | 49 | 1012.3 |
| 20260506182618 | 49 | 319 | 2.6 | 10.4 | 0.00 | 0.03 | 0.02 | 50 | 1012.2 |
| 20260506181604 | 48 | 37 | 2.6 | 10.4 | 0.00 | 0.03 | 0.02 | 52 | 1012.1 |
| 20260506180531 | 46 | 33 | 3.5 | 9.6 | 0.00 | 0.03 | 0.02 | 54 | 1012.0 |
| 20260506175533 | 45 | 353 | 2.6 | 8.7 | 0.00 | 0.03 | 0.02 | 57 | 1012.0 |
| 20260506174557 | 45 | 358 | 3.5 | 7.8 | 0.00 | 0.03 | 0.02 | 58 | 1011.9 |
| 20260506173539 | 45 | 15 | 2.6 | 9.6 | 0.00 | 0.03 | 0.02 | 60 | 1011.7 |
| 20260506171409 | 45 | 353 | 3.5 | 11.3 | 0.00 | 0.03 | 0.02 | 62 | 1011.3 |
| 20260506170354 | 46 | 47 | 3.5 | 11.3 | 0.00 | 0.03 | 0.02 | 60 | 1011.3 |
| 20260506165333 | 45 | 340 | 3.5 | 8.7 | 0.00 | 0.03 | 0.02 | 63 | 1011.0 |
| 20260506163242 | 43 | 56 | 2.6 | 8.7 | 0.00 | 0.03 | 0.02 | 71 | 1010.8 |
| 20260506162238 | 41 | 29 | 1.7 | 8.7 | 0.00 | 0.03 | 0.02 | 76 | 1010.6 |
| 20260506153953 | 39 | 319 | 3.5 | 8.7 | 0.00 | 0.03 | 0.02 | 86 | 1010.1 |
| 20260506152918 | 38 | 250 | 1.7 | 7.0 | 0.00 | 0.03 | 0.02 | 89 | 1009.8 |
| 20260506151845 | 38 | 49 | 0.9 | 5.2 | 0.00 | 0.03 | 0.02 | 91 | 1009.8 |
| 20260506150823 | 38 | 339 | 0.0 | 0.9 | 0.00 | 0.03 | 0.02 | 94 | 1009.7 |
| 20260506145847 | 37 | 322 | 0.0 | 0.0 | 0.00 | 0.03 | 0.02 | 95 | 1009.6 |
| 20260506144821 | 36 | 343 | 0.0 | 2.6 | 0.00 | 0.03 | 0.02 | 95 | 1009.5 |
| 20260506143821 | 36 | 343 | 0.9 | 3.5 | 0.04 | 0.03 | 0.02 | 96 | 1009.3 |
| 20260506142749 | 35 | 347 | 0.0 | 2.6 | 0.00 | 0.02 | 0.01 | 96 | 1009.2 |
| 20260506141723 | 35 | 357 | 0.0 | 2.6 | 0.00 | 0.01 | 0.00 | 95 | 1008.6 |
| 20260506125539 | 36 | 186 | 0.0 | 5.2 | 0.00 | 0.01 | 0.00 | 73 | 1007.7 |
| 20260506123347 | 37 | 165 | 0.9 | 2.6 | 0.00 | 0.01 | 0.00 | 71 | 1006.4 |
| 20260506122410 | 38 | 219 | 1.7 | 8.7 | 0.00 | 0.01 | 0.00 | 70 | 1006.3 |
| 20260506121358 | 39 | 172 | 0.0 | 5.2 | 0.00 | 0.01 | 0.00 | 70 | 1005.7 |
| 20260506115256 | 39 | 89 | 0.0 | 0.0 | 0.00 | 0.01 | 0.00 | 68 | 1004.9 |
| 20260506114249 | 39 | 88 | 0.0 | 0.0 | 0.00 | 0.01 | 0.00 | 68 | 1004.6 |
| 20260506113254 | 39 | 89 | 0.0 | 0.0 | 0.00 | 0.01 | 0.00 | 68 | 1004.5 |
| 20260506112220 | 39 | 88 | 0.0 | 0.0 | 0.00 | 0.01 | 0.00 | 67 | 1004.3 |
| 20260506090659 | 40 | 135 | 0.0 | 0.0 | 0.00 | 0.01 | 0.00 | 81 | 1005.0 |
| 20260506084527 | 42 | 342 | 0.0 | 0.0 | 0.00 | 0.01 | 0.00 | 80 | 1005.3 |
| 20260506083527 | 41 | 342 | 0.0 | 0.0 | 0.00 | 0.01 | 0.00 | 81 | 1005.3 |
| 20260506082523 | 41 | 343 | 0.0 | 0.0 | 0.00 | 0.01 | 0.00 | 81 | 1005.2 |
| 20260506081545 | 41 | 342 | 0.0 | 0.0 | 0.00 | 0.01 | 0.00 | 82 | 1005.2 |
| 20260506080524 | 42 | 259 | 0.0 | 0.0 | 0.00 | 0.01 | 0.00 | 80 | 1005.0 |
| 20260506073527 | 42 | 259 | 0.0 | 0.9 | 0.00 | 0.01 | 0.00 | 80 | 1005.0 |
| 20260506072456 | 42 | 347 | 0.0 | 0.0 | 0.00 | 0.01 | 0.00 | 79 | 1005.1 |
| 20260506071444 | 43 | 347 | 0.0 | 0.0 | 0.00 | 0.01 | 0.00 | 79 | 1005.2 |
| 20260506070505 | 42 | 290 | 0.0 | 0.0 | 0.00 | 0.01 | 0.00 | 79 | 1005.1 |
| 20260506061244 | 44 | 261 | 0.0 | 0.0 | 0.00 | 0.04 | 0.00 | 77 | 1004.9 |
| 20260506051010 | 46 | 134 | 0.0 | 0.0 | 0.00 | 0.07 | 0.04 | 70 | 1004.8 |
| 20260506044946 | 46 | 124 | 0.0 | 0.0 | 0.00 | 0.09 | 0.04 | 70 | 1004.6 |
| 20260506043928 | 46 | 255 | 0.0 | 0.0 | 0.00 | 0.11 | 0.04 | 67 | 1004.6 |
| 20260506042933 | 47 | 163 | 0.0 | 0.0 | 0.00 | 0.11 | 0.04 | 66 | 1004.6 |
| 20260506040751 | 47 | 143 | 0.0 | 0.0 | 0.00 | 0.11 | 0.04 | 63 | 1004.4 |
| 20260506034657 | 48 | 6 | 0.9 | 4.3 | 0.00 | 0.11 | 0.04 | 60 | 1004.1 |
| 20260506033715 | 48 | 342 | 0.9 | 4.3 | 0.00 | 0.14 | 0.04 | 59 | 1003.8 |
| 20260506032704 | 48 | 305 | 0.9 | 7.8 | 0.00 | 0.17 | 0.04 | 59 | 1003.7 |
| 20260506030617 | 48 | 349 | 0.9 | 4.3 | 0.00 | 0.23 | 0.04 | 59 | 1003.2 |
| 20260506025617 | 48 | 290 | 0.0 | 1.7 | 0.00 | 0.23 | 0.04 | 59 | 1003.0 |
| 20260506024546 | 49 | 19 | 0.0 | 2.6 | 0.00 | 0.24 | 0.04 | 59 | 1003.0 |
| 20260506023524 | 49 | 134 | 0.0 | 0.9 | 0.00 | 0.26 | 0.04 | 58 | 1002.8 |
| 20260506022525 | 49 | 270 | 0.0 | 0.0 | 0.00 | 0.29 | 0.04 | 57 | 1002.7 |
| 20260506021536 | 50 | 302 | 0.0 | 5.2 | 0.00 | 0.34 | 0.04 | 57 | 1002.5 |
| 20260506020517 | 50 | 64 | 1.7 | 0.0 | 0.00 | 0.34 | 0.04 | 57 | 1002.5 |
| 20260506015502 | 51 | 0 | 3.5 | 13.0 | 0.00 | 0.36 | 0.04 | 55 | 1002.2 |